GW4551 Weather Reports


Display with metric or nautical units.
time (UTC)temp
F
wind
direction
speed
MPH
gust
MPH
rain 1hr
in
rain 24hr
in
rain mn
in
humidity
%
barometer
mb
20260507213035 47 122 1.0 3.0 0.00 0.00 0.00 78 1016.8
20260507212030 47 187 1.0 1.0 0.00 0.00 0.00 77 1016.8
20260507211106 47 187 1.0 1.0 0.00 0.00 0.00 77 1016.8
20260507210020 48 0.0 0.0 0.00 0.00 0.00 75 1016.8
20260507205116 49 132 1.0 2.0 0.00 0.00 0.00 74 1016.6
20260507204032 49 136 0.0 1.0 0.00 0.00 0.00 74 1016.6
20260507203027 49 135 1.0 1.0 0.00 0.00 0.00 73 1016.4
20260507202023 49 135 1.0 2.0 0.00 0.00 0.00 74 1016.5
20260507201017 49 177 0.0 1.0 0.00 0.00 0.00 74 1016.2
20260507200033 50 174 0.0 1.0 0.00 0.00 0.00 72 1016.0
20260507195028 50 149 1.0 1.0 0.00 0.00 0.00 71 1015.9
20260507194023 51 142 1.0 2.0 0.00 0.00 0.00 69 1015.8
20260507193018 52 135 1.0 3.0 0.00 0.00 0.00 68 1015.8
20260507192033 52 129 1.0 2.0 0.00 0.00 0.00 69 1015.6
20260507191109 53 159 0.0 1.0 0.00 0.00 0.00 68 1015.5
20260507190023 54 145 1.0 2.0 0.00 0.00 0.00 66 1015.4
20260507185019 55 163 1.0 2.0 0.00 0.00 0.00 64 1015.5
20260507184033 54 176 1.0 2.0 0.00 0.00 0.00 65 1015.5
20260507183028 54 164 1.0 2.0 0.00 0.00 0.00 65 1015.5
20260507182024 54 169 1.0 2.0 0.00 0.00 0.00 64 1015.5
20260507181019 55 164 1.0 1.0 0.00 0.00 0.00 64 1015.4
20260507180530 55 180 1.0 2.0 0.00 0.00 0.00 64 1015.4
20260507175525 55 168 2.0 4.0 0.00 0.00 0.00 64 1015.4
20260507174521 55 179 3.0 8.0 0.00 0.00 0.00 64 1015.3
20260507173536 55 185 3.0 6.0 0.00 0.00 0.00 65 1015.4
20260507172612 55 182 3.0 8.0 0.00 0.00 0.00 63 1015.4
20260507171528 55 177 3.0 6.0 0.00 0.00 0.00 64 1015.4
20260507170524 55 186 4.0 7.0 0.00 0.00 0.00 65 1015.4
20260507165600 55 185 4.0 8.0 0.00 0.00 0.00 65 1015.3
20260507164535 55 185 3.0 7.0 0.00 0.00 0.00 64 1015.2
20260507163531 56 180 3.0 7.0 0.00 0.00 0.00 62 1015.4
20260507162527 56 189 4.0 7.0 0.00 0.00 0.00 62 1015.3
20260507161523 57 176 2.0 4.0 0.00 0.00 0.00 60 1015.3
20260507160519 56 151 1.0 2.0 0.00 0.00 0.00 60 1015.5
20260507155535 56 173 1.0 3.0 0.00 0.00 0.00 60 1015.4
20260507154531 56 156 2.0 3.0 0.00 0.00 0.00 59 1015.5
20260507153606 56 147 1.0 3.0 0.00 0.00 0.00 60 1015.5
20260507152523 56 172 1.0 3.0 0.00 0.00 0.00 62 1015.6
20260507151519 56 127 3.0 7.0 0.00 0.00 0.00 62 1015.6
20260507150535 57 132 4.0 9.0 0.00 0.00 0.00 61 1015.5
20260507145531 57 170 3.0 8.0 0.00 0.00 0.00 63 1015.6
20260507144527 57 167 3.0 8.0 0.00 0.00 0.00 61 1015.5
20260507143603 57 167 3.0 7.0 0.00 0.00 0.00 63 1015.6
20260507142519 56 173 3.0 6.0 0.00 0.00 0.00 64 1015.7
20260507141535 57 171 2.0 6.0 0.00 0.00 0.00 63 1015.7
20260507140611 56 172 2.0 6.0 0.00 0.00 0.00 65 1015.7
20260507135526 56 172 3.0 7.0 0.00 0.00 0.00 65 1015.9
20260507134603 56 179 3.0 6.0 0.00 0.00 0.00 66 1015.8
20260507133518 56 188 4.0 8.0 0.00 0.00 0.00 65 1015.9
20260507132614 56 190 3.0 8.0 0.00 0.00 0.00 64 1015.9
20260507131609 58 195 2.0 8.0 0.00 0.00 0.00 55 1015.9
20260507130536 58 242 0.0 3.0 0.00 0.00 0.00 47 1015.9
20260507125519 57 303 1.0 3.0 0.00 0.00 0.00 46 1015.8
20260507124535 57 284 2.0 4.0 0.00 0.00 0.00 47 1015.9
20260507123530 58 313 2.0 3.0 0.00 0.00 0.00 46 1015.9
20260507122525 57 333 2.0 3.0 0.00 0.00 0.00 45 1015.9
20260507121522 58 329 3.0 6.0 0.00 0.00 0.00 44 1015.9
20260507120517 59 318 2.0 4.0 0.00 0.00 0.00 43 1015.9
20260507115533 60 16 2.0 7.0 0.00 0.00 0.00 42 1016.0
20260507114529 58 304 3.0 6.0 0.00 0.00 0.00 45 1015.9
20260507113525 59 324 1.0 3.0 0.00 0.00 0.00 43 1015.9
20260507112520 58 222 0.0 1.0 0.00 0.00 0.00 45 1015.9
20260507111537 58 186 1.0 3.0 0.00 0.00 0.00 45 1015.9
20260507110612 58 118 0.0 3.0 0.00 0.00 0.00 47 1016.1
20260507105528 57 28 2.0 4.0 0.00 0.00 0.00 48 1016.1
20260507104523 57 153 0.0 1.0 0.00 0.00 0.00 51 1016.2
20260507103559 56 340 0.0 2.0 0.00 0.00 0.00 51 1016.1
20260507102535 56 35 1.0 4.0 0.00 0.00 0.00 51 1016.2
20260507101530 56 337 2.0 3.0 0.00 0.00 0.00 49 1016.3
20260507100607 59 203 1.0 3.0 0.00 0.00 0.00 48 1016.2
20260507095602 59 121 0.0 2.0 0.00 0.00 0.00 51 1016.3
20260507094518 56 343 2.0 3.0 0.00 0.00 0.00 54 1016.3
20260507093534 58 338 2.0 6.0 0.00 0.00 0.00 51 1016.3
20260507092530 58 79 1.0 3.0 0.00 0.00 0.00 51 1016.3
20260507091527 57 154 0.0 2.0 0.00 0.00 0.00 50 1016.3
20260507090523 56 106 1.0 3.0 0.00 0.00 0.00 60 1016.3
20260507085518 56 96 1.0 4.0 0.00 0.00 0.00 66 1016.3
20260507084534 55 175 1.0 2.0 0.00 0.00 0.00 67 1016.5
20260507083531 54 190 1.0 3.0 0.00 0.00 0.00 70 1016.4
20260507082526 54 130 1.0 4.0 0.00 0.00 0.00 72 1016.3
20260507081602 54 89 0.0 2.0 0.00 0.00 0.00 73 1016.3
20260507080517 53 105 0.0 2.0 0.00 0.00 0.00 75 1016.3
20260507075533 51 124 0.0 2.0 0.00 0.00 0.00 80 1016.2
20260507074528 50 171 1.0 2.0 0.00 0.00 0.00 81 1016.2
20260507073524 49 62 0.0 2.0 0.00 0.00 0.00 85 1016.2
20260507072520 48 144 0.0 1.0 0.00 0.00 0.00 87 1016.2
20260507071535 46 341 0.0 1.0 0.00 0.00 0.00 90 1016.1
20260507070530 45 26 0.0 2.0 0.00 0.00 0.00 91 1016.0
20260507065526 44 349 1.0 2.0 0.00 0.00 0.00 92 1016.1
20260507064522 43 343 1.0 2.0 0.00 0.00 0.00 94 1016.1
20260507063558 44 8 1.0 2.0 0.00 0.00 0.00 95 1016.1
20260507062534 43 35 1.0 2.0 0.00 0.00 0.00 96 1016.0
20260507061530 42 39 0.0 1.0 0.00 0.00 0.00 96 1016.0
20260507060525 41 327 0.0 1.0 0.00 0.00 0.00 96 1016.1
20260507055521 41 0.0 0.0 0.00 0.00 0.00 95 1015.9
20260507054558 40 0.0 0.0 0.00 0.00 0.00 95 1015.9
20260507053533 40 346 1.0 1.0 0.00 0.00 0.00 95 1015.7
20260507052529 40 0.0 0.0 0.00 0.00 0.00 95 1015.7
20260507051525 40 347 0.0 1.0 0.00 0.00 0.00 95 1015.7
20260507050520 40 341 0.0 1.0 0.00 0.00 0.00 95 1015.6
20260507045516 40 338 1.0 1.0 0.00 0.00 0.00 95 1015.5
20260507044531 40 335 1.0 1.0 0.00 0.00 0.00 95 1015.5
20260507043528 40 330 1.0 1.0 0.00 0.00 0.00 95 1015.5
20260507042604 40 332 1.0 1.0 0.00 0.00 0.00 95 1015.5
20260507041520 40 337 1.0 2.0 0.00 0.00 0.00 95 1015.5
20260507040615 40 336 2.0 2.0 0.00 0.00 0.00 95 1015.5
20260507035530 40 339 2.0 2.0 0.00 0.00 0.00 94 1015.6
20260507034526 40 344 1.0 2.0 0.00 0.00 0.00 94 1015.5
20260507033522 40 339 2.0 3.0 0.00 0.00 0.00 94 1015.5
20260507032559 40 336 2.0 3.0 0.00 0.00 0.00 94 1015.5
20260507031534 40 335 1.0 2.0 0.00 0.00 0.00 94 1015.5
20260507030530 40 336 1.0 2.0 0.00 0.00 0.00 93 1015.5
20260507025525 41 334 2.0 2.0 0.00 0.00 0.00 93 1015.5
20260507024521 41 342 2.0 2.0 0.00 0.00 0.00 93 1015.4
20260507023517 41 340 1.0 2.0 0.00 0.00 0.00 93 1015.3
20260507022533 41 337 2.0 2.0 0.00 0.00 0.00 92 1015.4
20260507021609 41 337 2.0 3.0 0.00 0.00 0.00 92 1015.3
20260507020524 41 339 2.0 2.0 0.00 0.00 0.00 91 1015.3
20260507015520 41 336 2.0 3.0 0.00 0.00 0.00 91 1015.2
20260507014517 41 335 3.0 3.0 0.00 0.00 0.00 90 1015.2
20260507013533 41 341 2.0 3.0 0.00 0.00 0.00 90 1015.1
20260507012528 41 337 2.0 3.0 0.00 0.00 0.00 89 1015.1
20260507011524 42 341 3.0 3.0 0.00 0.00 0.00 88 1015.2
20260507010520 42 340 3.0 3.0 0.00 0.00 0.00 87 1015.3
20260507005536 42 340 2.0 3.0 0.00 0.00 0.00 87 1015.2
20260507004532 42 339 2.0 3.0 0.00 0.00 0.00 86 1015.3
20260507003527 42 340 2.0 3.0 0.00 0.00 0.00 85 1015.3
20260507002602 43 343 2.0 3.0 0.00 0.00 0.00 84 1015.3
20260507001518 43 338 2.0 3.0 0.00 0.00 0.00 83 1015.3
20260507000534 44 341 2.0 3.0 0.00 0.00 0.00 82 1015.3
20260506235530 44 338 1.0 2.0 0.00 0.00 0.00 81 1015.4
20260506234526 44 330 1.0 2.0 0.00 0.00 0.00 80 1015.2
20260506233522 44 326 0.0 1.0 0.00 0.00 0.00 80 1015.1
20260506232517 46 340 1.0 2.0 0.00 0.00 0.00 78 1015.2
20260506231534 46 29 1.0 2.0 0.00 0.00 0.00 77 1014.9
20260506230529 46 32 2.0 2.0 0.00 0.00 0.00 77 1015.1
20260506225526 46 352 1.0 1.0 0.00 0.00 0.00 76 1015.1
20260506224521 46 337 2.0 3.0 0.00 0.00 0.00 75 1015.1
20260506223517 46 337 2.0 2.0 0.00 0.00 0.00 74 1015.1
20260506222532 47 352 1.0 2.0 0.00 0.00 0.00 73 1015.1
20260506221528 47 35 2.0 2.0 0.00 0.00 0.00 72 1015.0
20260506220536 47 20 1.0 2.0 0.00 0.00 0.00 71 1014.9
20260506215530 47 355 1.0 1.0 0.00 0.00 0.00 70 1014.9
20260506214606 48 347 1.0 1.0 0.00 0.00 0.00 69 1014.9
20260506213519 48 21 2.0 4.0 0.00 0.00 0.00 69 1014.8